Weather History for Newport, RI

Change the Weather History Date:

Friday, October 26, 2012

  Actual Average Record
Temperature  
Mean Temperature 52 °F -  
Max Temperature 62 °F 59 °F 73 °F (1989)
Min Temperature 44 °F 45 °F 34 °F (1969)
Degree Days  
Heating Degree Days 12    
Growing Degree Days 2 (Base 50)    
Moisture  
Dew Point 48 °F    
Average Humidity 80    
Maximum Humidity 100    
Minimum Humidity 52    
Precipitation  
Precipitation 0.00 in - - ()
Sea Level Pressure  
Sea Level Pressure 30.20 in    
Wind  
Wind Speed 2 mph (South)    
Max Wind Speed 9 mph    
Max Gust Speed -    
Visibility 10 miles    
Events      
Averages and records for this station are not official NWS values.
T = Trace of Precipitation, MM = Missing Value Source: NWS Daily Summary

Daily Weather History Graph

Daily Weather History Graph

Search for Another Location

Airport:

Trip Planner

Search our weather history database for the weather conditions in past years. The results will help you decide how hot, cold, wet, or windy it might be!

Date:

Astronomy

Oct. 26, 2012 Rise Set
Actual Time 7:10 AM EDT 5:47 PM EDT
Civil Twilight 6:41 AM EDT 6:15 PM EDT
Nautical Twilight 6:09 AM EDT 6:48 PM EDT
Astronomical Twilight 5:37 AM EDT 7:20 PM EDT
Moon 4:03 PM EDT (10/26) 4:01 AM EDT (10/26)
Length of Visible Light 11h 33m
Length of Day
10h 36m
Waxing Gibbous, 91% of the Moon is Illuminated
Oct 26
Waxing Gibbous
Oct 29
Full
Nov 6
Last Quarter
Nov 13
New
Nov 20
First Quarter

Hourly Weather History & Observations

Time (EDT) Temp. Dew Point Humidity Pressure Visibility Wind Dir Wind Speed Gust Speed Precip Events Conditions
12:53 AM 48.9 °F 46.0 °F 90% 30.26 in 10.0 mi Calm Calm - N/A   Clear
2:53 AM 48.0 °F 46.0 °F 93% 30.25 in 10.0 mi Calm Calm - N/A   Overcast
3:53 AM 46.9 °F 46.0 °F 97% 30.24 in 10.0 mi Calm Calm - N/A   Mostly Cloudy
4:53 AM 46.9 °F 45.0 °F 93% 30.24 in 10.0 mi Calm Calm - N/A   Clear
5:53 AM 46.0 °F 44.1 °F 93% 30.24 in 10.0 mi Calm Calm - N/A   Clear
6:11 AM 46.4 °F 44.6 °F 93% 30.24 in 1.8 mi Calm Calm - N/A   Clear
6:25 AM 44.6 °F 42.8 °F 93% 30.24 in 3.0 mi Calm Calm - N/A   Clear
6:53 AM 45.0 °F 43.0 °F 93% 30.24 in 10.0 mi Calm Calm - N/A   Clear
7:53 AM 48.9 °F 48.9 °F 100% 30.23 in 10.0 mi Calm Calm - N/A   Clear
8:53 AM 57.0 °F 52.0 °F 83% 30.24 in 10.0 mi SSE 5.8 mph - N/A   Clear
9:53 AM 60.1 °F 51.1 °F 72% 30.24 in 10.0 mi SSE 5.8 mph - N/A   Clear
10:53 AM 60.1 °F 51.1 °F 72% 30.24 in 10.0 mi South 6.9 mph - N/A   Clear
11:31 AM 60.8 °F 50.0 °F 68% 30.24 in 10.0 mi SSE 6.9 mph - N/A   Mostly Cloudy
11:38 AM 60.8 °F 50.0 °F 68% 30.23 in 10.0 mi South 8.1 mph - N/A   Scattered Clouds
11:53 AM 61.0 °F 48.0 °F 62% 30.23 in 10.0 mi SE 6.9 mph - N/A   Partly Cloudy
12:53 PM 61.0 °F 48.9 °F 64% 30.22 in 10.0 mi South 6.9 mph - N/A   Scattered Clouds
1:53 PM 61.0 °F 43.0 °F 52% 30.20 in 10.0 mi South 8.1 mph - N/A   Overcast
2:33 PM 60.8 °F 46.4 °F 59% 30.19 in 10.0 mi South 9.2 mph - N/A   Overcast
2:53 PM 60.1 °F 48.9 °F 67% 30.19 in 10.0 mi South 9.2 mph - N/A   Overcast
3:53 PM 60.1 °F 50.0 °F 69% 30.17 in 10.0 mi South 6.9 mph - N/A   Mostly Cloudy
4:09 PM 60.8 °F 48.2 °F 63% 30.16 in 10.0 mi SSE 6.9 mph - N/A   Scattered Clouds
4:53 PM 59.0 °F 48.9 °F 69% 30.14 in 10.0 mi South 5.8 mph - N/A   Clear
5:53 PM 55.9 °F 48.9 °F 77% 30.14 in 10.0 mi SSE 3.5 mph - N/A   Clear
6:53 PM 53.1 °F 48.0 °F 83% 30.14 in 10.0 mi Calm Calm - N/A   Clear
7:53 PM 52.0 °F 48.0 °F 86% 30.16 in 10.0 mi Calm Calm - N/A   Clear
9:53 PM 52.0 °F 48.9 °F 89% 30.15 in 10.0 mi South 3.5 mph - N/A   Clear
10:53 PM 52.0 °F 48.9 °F 89% 30.14 in 10.0 mi Calm Calm - N/A   Clear
11:53 PM 48.9 °F 46.9 °F 93% 30.13 in 10.0 mi Calm Calm - N/A   Clear